�������l�o���
Date,Time,MP-1(��Sv/h),MP-2(��Sv/h),MP-3(��Sv/h),MP-4(��Sv/h),MP-5(��Sv/h),MP-6(��Sv/h),MP-7(��Sv/h),����,����(m/s),���J
2017/02/09,00:00,0.393,0.234,0.407,0.375,0.337,0.195,0.167,�k,1.3,��
2017/02/09,00:10,0.395,0.234,0.408,0.374,0.338,0.195,0.166,�k,1.4,��
2017/02/09,00:20,0.396,0.234,0.407,0.376,0.338,0.194,0.166,�k��,0.9,��
2017/02/09,00:30,0.392,0.234,0.406,0.377,0.338,0.195,0.166,�k��,1.6,��
2017/02/09,00:40,0.395,0.233,0.407,0.376,0.338,0.193,0.165,�k,2.0,��
2017/02/09,00:50,0.394,0.233,0.409,0.374,0.337,0.195,0.166,�k�k��,2.2,��
2017/02/09,01:00,0.395,0.233,0.405,0.376,0.339,0.194,0.165,�k,2.7,��
2017/02/09,01:10,0.394,0.233,0.407,0.375,0.338,0.195,0.167,�k,3.0,��
2017/02/09,01:20,0.394,0.234,0.407,0.375,0.337,0.195,0.166,�k,3.6,��
2017/02/09,01:30,0.395,0.234,0.409,0.375,0.338,0.195,0.166,�k,4.4,��
2017/02/09,01:40,0.396,0.235,0.405,0.375,0.337,0.195,0.166,�k,4.4,��
2017/02/09,01:50,0.393,0.234,0.407,0.375,0.337,0.195,0.167,�k,4.4,��
2017/02/09,02:00,0.395,0.236,0.406,0.375,0.337,0.195,0.167,�k,4.7,��
2017/02/09,02:10,0.395,0.234,0.408,0.375,0.336,0.195,0.166,�k,4.9,��
2017/02/09,02:20,0.395,0.233,0.405,0.376,0.336,0.194,0.167,�k,3.8,��
2017/02/09,02:30,0.395,0.233,0.405,0.376,0.337,0.194,0.166,�k,3.3,��
2017/02/09,02:40,0.395,0.234,0.408,0.375,0.338,0.194,0.165,�k,4.2,��
2017/02/09,02:50,0.396,0.233,0.407,0.375,0.337,0.195,0.166,�k,3.6,��
2017/02/09,03:00,0.395,0.234,0.406,0.375,0.337,0.195,0.168,�k,1.6,��
2017/02/09,03:10,0.395,0.234,0.407,0.374,0.337,0.195,0.166,�k,1.1,��
2017/02/09,03:20,0.393,0.234,0.407,0.374,0.337,0.193,0.167,�k�k��,1.7,��
2017/02/09,03:30,0.397,0.234,0.407,0.376,0.337,0.193,0.166,�k,2.5,��
2017/02/09,03:40,0.395,0.233,0.406,0.376,0.338,0.195,0.166,�k,2.6,��
2017/02/09,03:50,0.393,0.233,0.405,0.375,0.336,0.194,0.166,�k,3.4,��
2017/02/09,04:00,0.395,0.235,0.408,0.375,0.337,0.194,0.167,�k,3.3,��
2017/02/09,04:10,0.396,0.234,0.407,0.375,0.338,0.195,0.166,�k,3.3,��
2017/02/09,04:20,0.394,0.234,0.407,0.376,0.337,0.194,0.167,�k,4.2,��
2017/02/09,04:30,0.394,0.233,0.407,0.375,0.336,0.194,0.167,�k,4.4,��
2017/02/09,04:40,0.394,0.234,0.407,0.375,0.338,0.194,0.166,�k,4.7,��
2017/02/09,04:50,0.395,0.235,0.406,0.377,0.337,0.195,0.166,�k,5.0,��
2017/02/09,05:00,0.394,0.233,0.406,0.376,0.338,0.194,0.167,�k,5.1,��
2017/02/09,05:10,0.393,0.234,0.406,0.375,0.338,0.194,0.166,�k,2.9,��
2017/02/09,05:20,0.395,0.235,0.408,0.374,0.337,0.195,0.166,�k,3.2,��
2017/02/09,05:30,0.395,0.235,0.405,0.376,0.337,0.194,0.166,�k�k��,1.8,��
2017/02/09,05:40,0.394,0.234,0.405,0.375,0.338,0.194,0.166,�k,3.9,��
2017/02/09,05:50,0.396,0.233,0.406,0.375,0.337,0.194,0.167,�k,4.2,��
2017/02/09,06:00,0.395,0.233,0.408,0.375,0.338,0.196,0.167,�k,2.8,��
2017/02/09,06:10,0.395,0.235,0.406,0.377,0.338,0.195,0.167,�k,1.7,��
2017/02/09,06:20,0.395,0.233,0.406,0.377,0.339,0.194,0.166,�k�k��,1.1,��
2017/02/09,06:30,0.395,0.234,0.407,0.374,0.338,0.195,0.166,�k�k��,0.8,��
2017/02/09,06:40,0.396,0.234,0.408,0.375,0.338,0.195,0.166,��,1.1,��
2017/02/09,06:50,0.395,0.233,0.407,0.375,0.338,0.194,0.166,�쐼,1.7,�L
2017/02/09,07:00,0.395,0.235,0.407,0.374,0.338,0.196,0.168,�쐼,3.2,�L
2017/02/09,07:10,0.397,0.234,0.408,0.377,0.337,0.196,0.168,�쐼,2.9,�L
2017/02/09,07:20,0.397,0.234,0.407,0.378,0.337,0.194,0.167,�쐼,3.6,�L
2017/02/09,07:30,0.394,0.235,0.406,0.378,0.338,0.196,0.169,��쐼,3.3,�L
2017/02/09,07:40,0.396,0.235,0.407,0.376,0.340,0.195,0.168,��쐼,3.6,�L
2017/02/09,07:50,0.397,0.234,0.409,0.377,0.338,0.196,0.169,��쐼,2.1,�L
2017/02/09,08:00,0.397,0.235,0.408,0.378,0.339,0.196,0.168,��쐼,0.8,�L
2017/02/09,08:10,0.395,0.237,0.407,0.378,0.339,0.197,0.170,�k�k��,0.8,�L
2017/02/09,08:20,0.395,0.236,0.408,0.377,0.339,0.196,0.168,�k�k��,1.3,�L
2017/02/09,08:30,0.399,0.236,0.408,0.377,0.339,0.198,0.170,�k�k��,2.5,�L
2017/02/09,08:40,0.397,0.237,0.409,0.378,0.338,0.198,0.170,�k,1.4,�L
2017/02/09,08:50,0.394,0.237,0.408,0.378,0.339,0.198,0.170,�k,2.2,�L
2017/02/09,09:00,0.395,0.236,0.406,0.377,0.339,0.199,0.170,�k�k��,1.8,�L
2017/02/09,09:10,0.396,0.237,0.407,0.376,0.336,0.198,0.170,�k�k��,2.3,�L
2017/02/09,09:20,0.394,0.236,0.406,0.376,0.336,0.198,0.171,�k�k��,2.4,�L
2017/02/09,09:30,0.396,0.236,0.406,0.375,0.336,0.197,0.170,�k,2.2,�L
2017/02/09,09:40,0.394,0.237,0.405,0.373,-,0.198,0.170,�k,3.0,�L
2017/02/09,09:50,0.395,0.235,0.406,0.374,-,0.197,0.168,�k,3.2,�L
2017/02/09,10:00,0.394,0.235,0.406,0.374,-,0.196,0.169,�k�k��,3.5,�L
2017/02/09,10:10,0.393,0.235,0.405,0.373,-,0.197,0.168,�k�k��,4.2,�L
2017/02/09,10:20,0.394,0.235,0.404,0.374,-,0.196,0.167,�k,4.8,�L
2017/02/09,10:30,0.395,0.234,0.401,0.371,-,0.197,0.169,�k,4.2,�L
2017/02/09,10:40,0.393,0.236,0.403,0.373,-,0.198,0.168,�k�k��,4.8,�L
2017/02/09,10:50,0.391,0.234,0.402,0.371,-,0.196,0.168,�k�k��,5.4,�L
2017/02/09,11:00,0.391,0.234,0.401,0.372,-,0.196,0.167,�k�k��,5.3,�L
2017/02/09,11:10,0.393,0.233,0.400,0.371,-,0.196,0.167,�k�k��,5.5,�L
2017/02/09,11:20,0.390,0.232,0.402,0.370,-,0.195,0.166,�k�k��,5.2,�L
2017/02/09,11:30,0.391,0.234,0.401,0.368,-,0.194,0.166,�k�k��,5.0,�L
2017/02/09,11:40,0.391,0.233,0.399,0.370,-,0.195,0.167,�k�k��,5.5,�L
2017/02/09,11:50,0.393,0.232,0.399,0.369,-,0.195,0.166,�k�k��,5.8,�L
2017/02/09,12:00,0.390,0.233,0.401,0.371,-,0.196,0.165,�k�k��,6.2,�L
2017/02/09,12:10,0.388,0.233,0.400,0.368,-,0.196,0.165,�k�k��,5.3,�L
2017/02/09,12:20,0.389,0.233,0.399,0.367,-,0.194,0.165,�k�k��,4.9,�L
2017/02/09,12:30,0.389,0.232,0.398,0.369,-,0.193,0.164,�k�k��,4.6,�L
2017/02/09,12:40,0.390,0.232,0.398,0.369,-,0.193,0.164,�k,5.2,�L
2017/02/09,12:50,0.390,0.231,0.398,0.366,-,0.193,0.163,�k,4.4,�L
2017/02/09,13:00,0.389,0.232,0.397,0.365,-,0.192,0.164,�k,4.8,�L
2017/02/09,13:10,0.387,0.231,0.396,0.368,-,0.193,0.163,�k�k��,5.2,�L
2017/02/09,13:20,0.387,0.230,0.398,0.368,-,0.192,0.163,�k�k��,5.6,�L
2017/02/09,13:30,0.388,0.231,0.398,0.366,-,0.190,0.163,�k�k��,5.3,�L
2017/02/09,13:40,0.387,0.231,0.396,0.365,-,0.191,0.163,�k�k��,5.2,�L
2017/02/09,13:50,0.387,0.229,0.396,0.367,-,0.191,0.163,�k�k��,5.3,�L
2017/02/09,14:00,0.388,0.231,0.396,0.365,-,0.191,0.162,�k�k��,5.2,�L
2017/02/09,14:10,0.387,0.230,0.398,0.365,-,0.192,0.162,�k�k��,5.2,�L
2017/02/09,14:20,0.387,0.230,0.397,0.366,-,0.193,0.162,�k�k��,5.8,�L
2017/02/09,14:30,0.388,0.230,0.394,0.367,-,0.191,0.162,�k�k��,5.3,�L
2017/02/09,14:40,0.388,0.230,0.397,0.364,-,0.191,0.163,�k�k��,6.3,�L
2017/02/09,14:50,0.386,0.230,0.397,0.364,-,0.192,0.162,�k�k��,4.8,�L
2017/02/09,15:00,0.386,0.229,0.397,0.366,-,0.191,0.161,�k�k��,5.8,�L
2017/02/09,15:10,0.388,0.230,0.395,0.365,-,0.192,0.163,�k�k��,5.0,�L
2017/02/09,15:20,0.388,0.231,0.394,0.364,-,0.191,0.162,�k,5.3,�L
2017/02/09,15:30,0.387,0.230,0.396,0.363,-,0.190,0.161,�k�k��,5.3,�L
2017/02/09,15:40,0.386,0.230,0.396,0.365,-,0.191,0.162,�k�k��,6.4,�L
2017/02/09,15:50,0.386,0.229,0.394,0.364,-,0.191,0.163,�k�k��,6.4,�L
2017/02/09,16:00,0.386,0.229,0.395,0.363,-,0.191,0.162,�k�k��,6.9,�L
2017/02/09,16:10,0.386,0.229,0.395,0.365,-,0.192,0.162,�k�k��,7.2,�L
2017/02/09,16:20,0.386,0.231,0.394,0.365,-,0.190,0.162,�k�k��,7.2,�L
2017/02/09,16:30,0.386,0.230,0.393,0.366,-,0.192,0.162,�k�k��,7.3,�L
2017/02/09,16:40,0.385,0.230,0.393,0.363,0.332,0.191,0.161,�k,7.1,�L
2017/02/09,16:50,0.385,0.229,0.393,0.363,0.331,0.192,0.161,�k�k��,7.8,�L
2017/02/09,17:00,0.385,0.230,0.394,0.363,0.330,0.191,0.161,�k�k��,9.6,�L
2017/02/09,17:10,0.385,0.229,0.393,0.363,0.332,0.190,0.161,�k�k��,8.4,�L
2017/02/09,17:20,0.385,0.231,0.395,0.362,0.331,0.190,0.162,�k�k��,8.8,�L
2017/02/09,17:30,0.386,0.229,0.392,0.362,0.331,0.191,0.161,�k�k��,9.0,�L
2017/02/09,17:40,0.385,0.230,0.393,0.364,0.331,0.191,0.162,�k�k��,9.9,�L
2017/02/09,17:50,0.384,0.230,0.393,0.362,0.331,0.192,0.162,�k�k��,9.2,�L
2017/02/09,18:00,0.384,0.230,0.391,0.362,0.331,0.191,0.161,�k�k��,8.6,�L
2017/02/09,18:10,0.385,0.231,0.394,0.361,0.332,0.192,0.161,�k�k��,8.7,�L
2017/02/09,18:20,0.385,0.230,0.392,0.361,0.331,0.191,0.161,�k�k��,9.3,�L
2017/02/09,18:30,0.385,0.229,0.393,0.363,0.332,0.191,0.161,�k�k��,8.8,�L
2017/02/09,18:40,0.382,0.228,0.393,0.361,0.331,0.191,0.162,�k�k��,9.3,�L
2017/02/09,18:50,0.383,0.229,0.390,0.362,0.332,0.191,0.162,�k�k��,9.8,�L
2017/02/09,19:00,0.384,0.229,0.390,0.359,0.332,0.191,0.161,�k�k��,9.5,�L
2017/02/09,19:10,0.383,0.230,0.389,0.362,0.330,0.191,0.161,�k�k��,10.8,�L
2017/02/09,19:20,0.382,0.231,0.390,0.360,0.330,0.190,0.161,�k�k��,9.9,�L
2017/02/09,19:30,0.383,0.228,0.389,0.359,0.330,0.189,0.160,�k,9.8,�L
2017/02/09,19:40,0.382,0.230,0.388,0.359,0.330,0.189,0.160,�k,10.8,�L
2017/02/09,19:50,0.384,0.226,0.391,0.358,0.329,0.189,0.159,�k,10.1,�L
2017/02/09,20:00,0.383,0.229,0.389,0.360,0.330,0.189,0.159,�k,10.7,�L
2017/02/09,20:10,0.380,0.227,0.389,0.360,0.329,0.189,0.160,�k,10.7,�L
2017/02/09,20:20,0.381,0.228,0.387,0.359,0.330,0.188,0.159,�k,10.6,�L
2017/02/09,20:30,0.382,0.228,0.388,0.359,0.329,0.188,0.159,�k,10.4,�L
2017/02/09,20:40,0.381,0.228,0.389,0.359,0.330,0.189,0.159,�k,11.1,�L
2017/02/09,20:50,0.381,0.227,0.389,0.357,0.329,0.188,0.159,�k,10.4,�L
2017/02/09,21:00,0.381,0.227,0.389,0.357,0.328,0.187,0.159,�k,10.1,�L
2017/02/09,21:10,0.380,0.226,0.388,0.359,0.330,0.188,0.159,�k,11.0,�L
2017/02/09,21:20,0.381,0.228,0.388,0.358,0.330,0.189,0.160,�k,10.9,�L
2017/02/09,21:30,0.381,0.227,0.389,0.358,0.329,0.188,0.159,�k�k��,9.9,�L
2017/02/09,21:40,0.381,0.228,0.389,0.357,0.329,0.189,0.160,�k,12.0,�L
2017/02/09,21:50,0.380,0.228,0.387,0.357,0.328,0.189,0.158,�k,12.0,�L
2017/02/09,22:00,0.381,0.227,0.386,0.358,0.329,0.188,0.160,�k,11.8,�L
2017/02/09,22:10,0.381,0.227,0.387,0.355,0.330,0.188,0.159,�k,11.3,�L
2017/02/09,22:20,0.381,0.228,0.387,0.357,0.330,0.189,0.159,�k�k��,10.7,�L
2017/02/09,22:30,0.381,0.227,0.389,0.357,0.328,0.188,0.159,�k�k��,10.8,�L
2017/02/09,22:40,0.378,0.225,0.388,0.357,0.329,0.188,0.158,�k�k��,11.3,�L
2017/02/09,22:50,0.378,0.227,0.386,0.357,0.330,0.188,0.158,�k�k��,10.2,�L
2017/02/09,23:00,0.379,0.227,0.386,0.356,0.328,0.188,0.158,�k,11.2,�L
2017/02/09,23:10,0.380,0.228,0.388,0.357,0.329,0.187,0.158,�k�k��,12.3,�L
2017/02/09,23:20,0.378,0.226,0.385,0.356,0.328,0.187,0.158,�k�k��,11.3,�L
2017/02/09,23:30,0.380,0.226,0.387,0.357,0.329,0.187,0.158,�k�k��,11.5,�L
2017/02/09,23:40,0.379,0.226,0.386,0.358,0.330,0.188,0.158,�k,12.5,�L
2017/02/09,23:50,0.381,0.226,0.387,0.356,0.330,0.188,0.158,�k�k��,10.5,�L
